Location: Berkeley
(37.8716°N, 122.2727°W)
Time: 10:42:06
(UTC-08:00)

OTV 5 (USA 277) - Visible Passes

Search period start: 12 December 2018 00:00
Search period end: 22 December 2018 00:00
Orbit: 340 x 348 km, 54.5° (Epoch: 10 December)

Date Brightness Start Highest point End Pass type
(mag) Time Alt. Az. Time Alt. Az. Time Alt. Az.
12 Dec ? 05:32:01 10° NNE 05:32:22 10° NNE 05:32:56 10° NE visible
13 Dec ? 05:55:02 18° N 05:56:21 24° NE 05:58:47 10° E visible
14 Dec ? 06:18:06 18° NW 06:20:06 90° SSW 06:22:56 10° SE visible
15 Dec ? 05:09:48 19° ENE 05:09:48 19° ENE 05:11:10 10° E visible
15 Dec ? 06:41:21 10° WNW 06:43:35 21° SW 06:45:48 10° S visible
16 Dec ? 05:33:02 56° SE 05:33:02 56° SE 05:35:22 10° SE visible
17 Dec ? 05:56:20 21° SW 05:56:20 21° SW 05:58:18 10° S visible
